Belmar-Farmingdale, NJ

7:46 AM EDT on July 22, 2017 (GMT -0400)
Allaire

Weather History for KBLM - April, 2013

Change the Weather History Date:

Wednesday, April 3, 2013

  Actual Average Record
Temperature  
Mean Temperature 39 °F -  
Max Temperature 46 °F 52 °F 77 °F (2002)
Min Temperature 32 °F 36 °F 28 °F (2008)
Degree Days  
Heating Degree Days 26    
Moisture  
Dew Point 12 °F    
Average Humidity 32    
Maximum Humidity 44    
Minimum Humidity 23    
Precipitation  
Precipitation 0.00 in - - ()
Sea Level Pressure  
Sea Level Pressure 30.18 in    
Wind  
Wind Speed 14 mph (WNW)    
Max Wind Speed 23 mph    
Max Gust Speed 32 mph    
Visibility 10 miles    
Events      
Averages and records for this station are not official NWS values.
T = Trace of Precipitation, MM = Missing Value Source: NWS Daily Summary

Daily Weather History Graph

Daily Weather History Graph

Search for Another Location

Airport or City:

Trip Planner

Search our weather history database for the weather conditions in past years. The results will help you decide how hot, cold, wet, or windy it might be!

Date:

Astronomy

Apr. 03, 2013 Rise Set
Actual Time 6:36 AM EDT 7:23 PM EDT
Civil Twilight 6:09 AM EDT 7:50 PM EDT
Nautical Twilight 5:36 AM EDT 8:23 PM EDT
Astronomical Twilight 5:03 AM EDT 8:57 PM EDT
Moon 2:15 AM EDT (4/3) 12:32 PM EDT (4/3)
Length of Visible Light 13h 41m
Length of Day
12h 46m
Last Quarter, 45% of the Moon is Illuminated
Apr 3
Last Quarter
Apr 10
New
Apr 18
First Quarter
Apr 25
Full
May 2
Last Quarter

Hourly Weather History & Observations

Time (EDT) Temp. Windchill Dew Point Humidity Pressure Visibility Wind Dir Wind Speed Gust Speed Precip Events Conditions
12:15 AM 37.4 °F 29.8 °F 12.2 °F 36% 30.09 in 10.0 mi WNW 11.5 mph - N/A   Clear
12:35 AM 35.6 °F 28.0 °F 14.0 °F 41% 30.09 in 10.0 mi West 10.4 mph - N/A   Clear
4:35 AM 32.0 °F 25.6 °F 12.2 °F 44% 30.12 in 10.0 mi West 6.9 mph - N/A   Clear
5:35 AM 32.0 °F 25.6 °F 12.2 °F 44% 30.14 in 10.0 mi West 6.9 mph - N/A   Clear
5:55 AM 32.0 °F 25.6 °F 12.2 °F 44% 30.15 in 10.0 mi West 6.9 mph - N/A   Clear
6:15 AM 32.0 °F 24.8 °F 12.2 °F 44% 30.15 in 10.0 mi WNW 8.1 mph - N/A   Clear
6:35 AM 32.0 °F 24.2 °F 12.2 °F 44% 30.16 in 10.0 mi West 9.2 mph - N/A   Clear
6:55 AM 32.0 °F 24.2 °F 12.2 °F 44% 30.16 in 10.0 mi West 9.2 mph - N/A   Clear
7:15 AM 33.8 °F 27.0 °F 12.2 °F 41% 30.17 in 10.0 mi West 8.1 mph - N/A   Clear
7:35 AM 33.8 °F 25.8 °F 14.0 °F 44% 30.18 in 10.0 mi West 10.4 mph - N/A   Clear
7:55 AM 35.6 °F 27.5 °F 14.0 °F 41% 30.19 in 10.0 mi West 11.5 mph 17.3 mph N/A   Clear
8:15 AM 35.6 °F 27.5 °F 14.0 °F 41% 30.19 in 10.0 mi West 11.5 mph 19.6 mph N/A   Clear
8:35 AM 37.4 °F 28.5 °F 14.0 °F 38% 30.19 in 10.0 mi West 15.0 mph 21.9 mph N/A   Clear
8:55 AM 37.4 °F 27.2 °F 14.0 °F 38% 30.19 in 10.0 mi West 19.6 mph 25.3 mph N/A   Clear
9:15 AM 37.4 °F 26.9 °F 14.0 °F 38% 30.18 in 10.0 mi West 20.7 mph 26.5 mph N/A   Clear
9:35 AM 37.4 °F 27.2 °F 12.2 °F 36% 30.18 in 10.0 mi West 19.6 mph 26.5 mph N/A   Clear
9:55 AM 37.4 °F 28.2 °F 14.0 °F 38% 30.17 in 10.0 mi WNW 16.1 mph 27.6 mph N/A   Clear
10:15 AM 39.2 °F 30.5 °F 14.0 °F 36% 30.17 in 10.0 mi WNW 16.1 mph 23.0 mph N/A   Clear
10:35 AM 39.2 °F 30.8 °F 14.0 °F 36% 30.17 in 10.0 mi NW 15.0 mph 23.0 mph N/A   Partly Cloudy
10:55 AM 41.0 °F 33.5 °F 14.0 °F 33% 30.18 in 10.0 mi WNW 13.8 mph 27.6 mph N/A   Partly Cloudy
11:15 AM 41.0 °F 31.9 °F 14.0 °F 33% 30.18 in 10.0 mi WNW 19.6 mph 24.2 mph N/A   Clear
11:35 AM 42.8 °F 35.8 °F 15.8 °F 34% 30.18 in 10.0 mi WNW 13.8 mph 25.3 mph N/A   Scattered Clouds
11:55 AM 42.8 °F 35.1 °F 14.0 °F 31% 30.18 in 10.0 mi WNW 16.1 mph 25.3 mph N/A   Mostly Cloudy
12:15 PM 42.8 °F 35.4 °F 15.8 °F 34% 30.17 in 10.0 mi WNW 15.0 mph 24.2 mph N/A   Scattered Clouds
12:35 PM 44.6 °F 37.4 °F 15.8 °F 31% 30.17 in 10.0 mi West 16.1 mph 29.9 mph N/A   Partly Cloudy
12:55 PM 44.6 °F 37.2 °F 14.0 °F 29% 30.15 in 10.0 mi WNW 17.3 mph 29.9 mph N/A   Clear
1:15 PM 44.6 °F 37.2 °F 14.0 °F 29% 30.15 in 10.0 mi WNW 17.3 mph 28.8 mph N/A   Clear
1:35 PM 44.6 °F 35.9 °F 14.0 °F 29% 30.15 in 10.0 mi West 23.0 mph 29.9 mph N/A   Clear
1:55 PM 44.6 °F 35.9 °F 12.2 °F 27% 30.14 in 10.0 mi West 23.0 mph 29.9 mph N/A   Clear
2:15 PM 44.6 °F 37.8 °F 14.0 °F 29% 30.13 in 10.0 mi WNW 15.0 mph 32.2 mph N/A   Clear
2:35 PM 46.4 °F 38.7 °F 15.8 °F 29% 30.13 in 10.0 mi West 20.7 mph 26.5 mph N/A   Clear
2:55 PM 46.4 °F 38.5 °F 12.2 °F 25% 30.13 in 10.0 mi WNW 21.9 mph 28.8 mph N/A   Clear
3:15 PM 46.4 °F 39.2 °F 12.2 °F 25% 30.12 in 10.0 mi WNW 18.4 mph 24.2 mph N/A   Clear
3:35 PM 46.4 °F 39.0 °F 12.2 °F 25% 30.13 in 10.0 mi WNW 19.6 mph 29.9 mph N/A   Partly Cloudy
3:55 PM 46.4 °F 39.0 °F 12.2 °F 25% 30.13 in 10.0 mi WNW 19.6 mph 32.2 mph N/A   Partly Cloudy
4:15 PM 46.4 °F 38.7 °F 12.2 °F 25% 30.13 in 10.0 mi NW 20.7 mph 31.1 mph N/A   Partly Cloudy
4:35 PM 46.4 °F 39.0 °F 12.2 °F 25% 30.13 in 10.0 mi NW 19.6 mph 32.2 mph N/A   Clear
4:55 PM 44.6 °F 36.6 °F 10.4 °F 25% 30.14 in 10.0 mi WNW 19.6 mph 31.1 mph N/A   Partly Cloudy
5:15 PM 46.4 °F 39.0 °F 12.2 °F 25% 30.14 in 10.0 mi NW 19.6 mph 26.5 mph N/A   Partly Cloudy
5:35 PM 44.6 °F 36.6 °F 10.4 °F 25% 30.14 in 10.0 mi WNW 19.6 mph 24.2 mph N/A   Clear
5:55 PM 44.6 °F 36.6 °F 10.4 °F 25% 30.17 in 10.0 mi WNW 19.6 mph 29.9 mph N/A   Scattered Clouds
6:15 PM 44.6 °F 37.2 °F 10.4 °F 25% 30.18 in 10.0 mi West 17.3 mph 23.0 mph N/A   Mostly Cloudy
6:35 PM 44.6 °F 37.2 °F 10.4 °F 25% 30.19 in 10.0 mi West 17.3 mph 28.8 mph N/A   Mostly Cloudy
6:55 PM 44.6 °F 37.2 °F 8.6 °F 23% 30.19 in 10.0 mi WNW 17.3 mph 26.5 mph N/A   Mostly Cloudy
7:15 PM 42.8 °F 35.4 °F 10.4 °F 27% 30.21 in 10.0 mi WNW 15.0 mph 23.0 mph N/A   Mostly Cloudy
7:35 PM 42.8 °F 35.8 °F 10.4 °F 27% 30.22 in 10.0 mi WNW 13.8 mph 26.5 mph N/A   Partly Cloudy
7:55 PM 42.8 °F 36.6 °F 8.6 °F 25% 30.22 in 10.0 mi WNW 11.5 mph 23.0 mph N/A   Clear
8:15 PM 41.0 °F 32.8 °F 8.6 °F 26% 30.24 in 10.0 mi NW 16.1 mph 24.2 mph N/A   Clear
8:35 PM 41.0 °F 32.5 °F 8.6 °F 26% 30.24 in 10.0 mi NW 17.3 mph 24.2 mph N/A   Clear
8:55 PM 39.2 °F 30.5 °F 8.6 °F 28% 30.25 in 10.0 mi NW 16.1 mph 19.6 mph N/A   Clear
9:15 PM 39.2 °F 31.6 °F 8.6 °F 28% 30.27 in 10.0 mi NW 12.7 mph 18.4 mph N/A   Clear
9:35 PM 39.2 °F 33.0 °F 8.6 °F 28% 30.27 in 10.0 mi NW 9.2 mph - N/A   Clear
9:55 PM 39.2 °F 31.2 °F 8.6 °F 28% 30.27 in 10.0 mi NW 13.8 mph 17.3 mph N/A   Clear
10:15 PM 37.4 °F 30.8 °F 10.4 °F 33% 30.28 in 10.0 mi NW 9.2 mph - N/A   Clear
10:35 PM 35.6 °F 30.7 °F 10.4 °F 35% 30.29 in 10.0 mi NW 5.8 mph - N/A   Clear
10:55 PM 35.6 °F 27.5 °F 10.4 °F 35% 30.29 in 10.0 mi NW 11.5 mph - N/A   Clear
11:15 PM 37.4 °F 30.8 °F 10.4 °F 33% 30.30 in 10.0 mi NW 9.2 mph - N/A   Clear
11:35 PM 35.6 °F 25.9 °F 10.4 °F 35% 30.29 in 10.0 mi NNW 16.1 mph 20.7 mph N/A   Clear
11:55 PM 35.6 °F 25.9 °F 10.4 °F 35% 30.29 in 10.0 mi NW 16.1 mph - N/A   Clear